Time,TemperatureF,DewpointF,PressureIn,WindDirection,WindDirectionDegrees,WindSpeedMPH,WindSpeedGustMPH,Humidity,HourlyPrecipIn,Conditions,Clouds,dailyrainin,SolarRadiationWatts/m^2,SoftwareType,DateUTC
2013-06-29 00:11:00,80.0,65.0,29.88,South,176,2.0,2.0,60,0.00,,,0.00,-36.000000,,2013-06-29 05:11:00,
2013-06-29 00:52:00,79.0,67.0,29.89,South,179,2.0,2.0,68,0.00,,,0.00,-33.000000,,2013-06-29 05:52:00,
2013-06-29 01:01:00,79.0,67.0,29.89,South,179,2.0,2.0,68,0.00,,,0.00,-33.000000,,2013-06-29 06:01:00,
2013-06-29 01:12:00,79.0,67.0,29.89,South,179,2.0,2.0,68,0.00,,,0.00,-33.000000,,2013-06-29 06:12:00,
2013-06-29 01:43:00,78.0,66.0,29.88,South,179,2.0,2.0,67,0.00,,,0.00,-37.000000,,2013-06-29 06:43:00,
2013-06-29 01:53:00,78.0,66.0,29.88,South,179,2.0,2.0,67,0.00,,,0.00,-37.000000,,2013-06-29 06:53:00,
2013-06-29 02:02:00,78.0,66.0,29.88,South,179,2.0,2.0,67,0.00,,,0.00,-37.000000,,2013-06-29 07:02:00,
2013-06-29 02:12:00,78.0,66.0,29.88,South,179,2.0,2.0,67,0.00,,,0.00,-37.000000,,2013-06-29 07:12:00,
2013-06-29 02:43:00,76.0,66.0,29.88,South,179,2.0,2.0,72,0.00,,,0.00,-34.000000,,2013-06-29 07:43:00,
2013-06-29 02:53:00,76.0,66.0,29.88,South,179,2.0,2.0,72,0.00,,,0.00,-34.000000,,2013-06-29 07:53:00,
2013-06-29 03:01:00,76.0,66.0,29.88,South,179,2.0,2.0,72,0.00,,,0.00,-34.000000,,2013-06-29 08:01:00,
2013-06-29 03:12:00,76.0,66.0,29.88,South,179,2.0,2.0,72,0.00,,,0.00,-34.000000,,2013-06-29 08:12:00,
2013-06-29 03:43:00,75.0,69.0,29.88,South,179,2.0,2.0,81,0.00,,,0.00,-31.000000,,2013-06-29 08:43:00,
2013-06-29 03:52:00,75.0,69.0,29.88,South,179,2.0,2.0,81,0.00,,,0.00,-31.000000,,2013-06-29 08:52:00,
2013-06-29 04:02:00,75.0,69.0,29.88,South,179,2.0,2.0,81,0.00,,,0.00,-31.000000,,2013-06-29 09:02:00,
2013-06-29 04:12:00,75.0,69.0,29.88,South,179,2.0,2.0,81,0.00,,,0.00,-31.000000,,2013-06-29 09:12:00,
2013-06-29 04:42:00,75.0,72.0,29.88,South,180,2.0,2.0,90,0.00,,,0.00,-36.000000,,2013-06-29 09:42:00,
2013-06-29 04:53:00,75.0,72.0,29.88,South,180,2.0,2.0,90,0.00,,,0.00,-36.000000,,2013-06-29 09:53:00,
2013-06-29 05:01:00,75.0,72.0,29.88,South,180,2.0,2.0,90,0.00,,,0.00,-36.000000,,2013-06-29 10:01:00,
2013-06-29 05:11:00,75.0,72.0,29.88,South,180,2.0,2.0,90,0.00,,,0.00,-36.000000,,2013-06-29 10:11:00,
2013-06-29 05:43:00,76.0,72.0,29.89,South,179,2.0,2.0,88,0.00,,,0.00,-32.000000,,2013-06-29 10:43:00,
2013-06-29 05:53:00,76.0,72.0,29.89,South,179,2.0,2.0,88,0.00,,,0.00,-32.000000,,2013-06-29 10:53:00,
2013-06-29 06:01:00,76.0,72.0,29.89,South,179,2.0,2.0,88,0.00,,,0.00,-32.000000,,2013-06-29 11:01:00,
2013-06-29 06:11:00,76.0,72.0,29.89,South,179,2.0,2.0,88,0.00,,,0.00,-32.000000,,2013-06-29 11:11:00,
2013-06-29 06:43:00,77.0,70.0,29.90,South,179,4.0,4.0,81,0.00,,,0.00,-33.000000,,2013-06-29 11:43:00,
2013-06-29 06:53:00,77.0,70.0,29.90,South,179,4.0,4.0,81,0.00,,,0.00,-33.000000,,2013-06-29 11:53:00,
2013-06-29 07:02:00,77.0,70.0,29.90,South,179,4.0,4.0,81,0.00,,,0.00,-33.000000,,2013-06-29 12:02:00,
2013-06-29 07:12:00,77.0,70.0,29.90,South,179,4.0,4.0,81,0.00,,,0.00,-33.000000,,2013-06-29 12:12:00,
2013-06-29 07:43:00,79.0,68.0,29.91,South,178,2.0,2.0,71,0.00,,,0.00,9.000000,,2013-06-29 12:43:00,
2013-06-29 07:53:00,79.0,68.0,29.91,South,178,2.0,2.0,71,0.00,,,0.00,9.000000,,2013-06-29 12:53:00,
2013-06-29 08:02:00,79.0,68.0,29.91,South,178,2.0,2.0,71,0.00,,,0.00,9.000000,,2013-06-29 13:02:00,
2013-06-29 08:11:00,79.0,68.0,29.91,South,178,2.0,2.0,71,0.00,,,0.00,9.000000,,2013-06-29 13:11:00,
2013-06-29 08:43:00,81.0,67.0,29.93,South,176,4.0,5.0,63,0.00,,,0.00,72.000000,,2013-06-29 13:43:00,
2013-06-29 08:53:00,81.0,67.0,29.93,South,176,4.0,5.0,63,0.00,,,0.00,72.000000,,2013-06-29 13:53:00,
2013-06-29 09:02:00,81.0,67.0,29.93,South,176,4.0,5.0,63,0.00,,,0.00,72.000000,,2013-06-29 14:02:00,
2013-06-29 09:12:00,81.0,67.0,29.93,South,176,4.0,5.0,63,0.00,,,0.00,72.000000,,2013-06-29 14:12:00,
2013-06-29 09:44:00,84.0,67.0,29.92,South,173,5.0,5.0,56,0.00,,,0.00,245.000000,,2013-06-29 14:44:00,
2013-06-29 09:53:00,84.0,67.0,29.92,South,173,5.0,5.0,56,0.00,,,0.00,245.000000,,2013-06-29 14:53:00,
2013-06-29 10:01:00,84.0,67.0,29.92,South,173,5.0,5.0,56,0.00,,,0.00,245.000000,,2013-06-29 15:01:00,
2013-06-29 10:11:00,84.0,67.0,29.92,South,173,5.0,5.0,56,0.00,,,0.00,245.000000,,2013-06-29 15:11:00,
2013-06-29 10:42:00,88.0,63.0,29.93,South,169,9.0,9.0,44,0.00,,,0.00,384.000000,,2013-06-29 15:42:00,
2013-06-29 10:53:00,88.0,63.0,29.93,South,169,9.0,9.0,44,0.00,,,0.00,384.000000,,2013-06-29 15:53:00,
2013-06-29 11:02:00,88.0,63.0,29.93,South,169,9.0,9.0,44,0.00,,,0.00,384.000000,,2013-06-29 16:02:00,
2013-06-29 11:12:00,88.0,63.0,29.93,South,169,9.0,9.0,44,0.00,,,0.00,384.000000,,2013-06-29 16:12:00,
2013-06-29 13:01:00,94.0,55.0,29.94,SSE,165,5.0,7.0,27,0.00,,,0.00,616.000000,,2013-06-29 18:01:00,
2013-06-29 13:12:00,94.0,55.0,29.94,SSE,165,5.0,7.0,27,0.00,,,0.00,616.000000,,2013-06-29 18:12:00,
2013-06-29 13:43:00,92.0,54.0,29.93,SSE,167,5.0,5.0,28,0.00,,,0.00,525.000000,,2013-06-29 18:43:00,
2013-06-29 13:53:00,92.0,54.0,29.93,SSE,167,5.0,5.0,28,0.00,,,0.00,525.000000,,2013-06-29 18:53:00,
2013-06-29 14:01:00,92.0,54.0,29.93,SSE,167,5.0,5.0,28,0.00,,,0.00,525.000000,,2013-06-29 19:01:00,
2013-06-29 14:12:00,92.0,54.0,29.93,SSE,167,5.0,5.0,28,0.00,,,0.00,525.000000,,2013-06-29 19:12:00,
2013-06-29 17:53:00,96.0,52.0,29.85,SSE,164,5.0,7.0,23,-99.99,,,0.00,347.000000,,2013-06-29 22:53:00,
2013-06-29 18:02:00,96.0,52.0,29.85,SSE,164,5.0,7.0,23,-99.99,,,0.00,347.000000,,2013-06-29 23:02:00,
2013-06-29 18:12:00,96.0,52.0,29.85,SSE,164,5.0,7.0,23,-99.99,,,0.00,347.000000,,2013-06-29 23:12:00,
2013-06-29 21:43:00,85.0,56.0,29.86,South,173,2.0,2.0,38,0.00,,,0.00,-33.000000,,2013-06-30 02:43:00,
2013-06-29 21:53:00,85.0,56.0,29.86,South,173,2.0,2.0,38,0.00,,,0.00,-33.000000,,2013-06-30 02:53:00,
2013-06-29 22:01:00,85.0,56.0,29.86,South,173,2.0,2.0,38,0.00,,,0.00,-33.000000,,2013-06-30 03:01:00,
2013-06-29 22:12:00,85.0,56.0,29.86,South,173,2.0,2.0,38,0.00,,,0.00,-33.000000,,2013-06-30 03:12:00,
2013-06-29 23:43:00,79.0,58.0,29.87,South,175,2.0,2.0,48,0.00,,,0.00,-35.000000,,2013-06-30 04:43:00,
2013-06-29 23:53:00,79.0,58.0,29.87,South,175,2.0,2.0,48,0.00,,,0.00,-35.000000,,2013-06-30 04:53:00,